Regional Weather Roundup
Issued by NWS

Home | Current Version | Previous Version | Text Only | Print | Product List | Glossary Off
Versions: 1 2 3 4 5 6 7 8 9 10 11 12 13 14 15 16 17 18 19 20 21 22 23 24 25 26 27 28 29 30 31 32 33 34 35 36 37 38 39 40 41 42 43 44 45 46 47 48 49 50

000
ASUS45 KBOU 012107
RWRCO

WEATHER ROUNDUP FOR COLORADO
NATIONAL WEATHER SERVICE DENVER/BOULDER CO
300 PM MDT WED OCT 01 2014

NOTE: "FAIR" INDICATES FEW OR NO CLOUDS BELOW 12000 FEET WITH NO
SIGNIFICANT WEATHER AND/OR OBSTRUCTIONS TO VISIBILITY.

COZ001>005-013-030-031-012200-
...NORTHWEST COLORADO...

CITY           SKY/WX    TMP DP  RH WIND       PRES   REMARKS
CRAIG          LGT RAIN  39  35  86 W7        30.05R
HAYDEN         PTSUNNY   43  34  70 CALM      30.02R
MEEKER         LGT RAIN  45  39  79 N15       30.00S
MOUNT WERNER   NOT AVBL
STEAMBOAT SPGS CLOUDY    40  36  86 CALM      30.01F
WALDEN         CLOUDY    36  32  87 SE3       30.02S
$$

COZ006>008-011-012200-
...WEST CENTRAL VALLEYS...

CITY           SKY/WX    TMP DP  RH WIND       PRES   REMARKS
GRAND JUNCTION PTSUNNY   55  43  63 SE5       29.97F
MONTROSE       CLOUDY    50  43  77 SE8       30.01F
EAGLE          PTSUNNY   52  39  62 SW20      29.99F
RIFLE          PTSUNNY   51  40  65 NW6       29.98F
DELTA          RAIN      54  44  69 CALM      30.00S
NUCLA          PTSUNNY   55  43  62 S9        30.00F THUNDER
$$

COZ017>023-064>068-012200-
...SOUTHWEST COLORADO...

CITY           SKY/WX    TMP DP  RH WIND       PRES   REMARKS
DURANGO        PTSUNNY   58  40  51 NW22G28   29.97R
CORTEZ         PTSUNNY   60  41  49 VRB3      29.99F
PAGOSA SPRINGS RAIN      47  38  70 W16G32    30.03R
TELLURIDE      CLOUDY   N/A N/A N/A CALM      30.09F
WOLF CREEK PAS CLOUDY    32  32 100 SW24G36   30.12F WCI  19
$$

COZ009-010-012-014-032>034-037-058>063-012200-
...CENTRAL COLORADO...

CITY           SKY/WX    TMP DP  RH WIND       PRES   REMARKS
ASPEN          PTSUNNY   44  35  70 CALM      30.02F
BUENA VISTA    CLOUDY    50  29  44 W3G26     29.99S
COPPER MTN     CLOUDY    36  30  80 W14       30.11F HAZE
BERTHOUD PASS  FOG       27  23  86 NW17      30.11S VSB<1/4 WCI  14
COTTONWOOD PAS CLOUDY    45  28  53 NW13G29   30.03F
GUNNISON       PTSUNNY   45  36  70 SW14      30.04F
KREMMLING      CLOUDY    46  36  66 SW8       30.01S
LEADVILLE      PTSUNNY   42  26  53 NW14G21   30.03F
SALIDA         CLOUDY    56  34  44 W21G30    30.05R
SUNLIGHT       SNOW      34  34 100 CALM      30.11S VSB 1/4
WILKERSON PASS NOT AVBL
$$

COZ069>075-012200-
...SAN LUIS VALLEY/SANGRE DE CRISTO MOUNTAINS...

CITY           SKY/WX    TMP DP  RH WIND       PRES   REMARKS
ALAMOSA        MOSUNNY   63  33  32 SW9       29.94F
LA VETA PASS   MOSUNNY   46  32  57 S6G20     30.06F
SAGUACHE       RAIN      43  39  87 NW26G49   30.02R
$$

COZ035-036-038>040-012200-
...NORTHERN COLORADO FRONT RANGE...

CITY           SKY/WX    TMP DP  RH WIND       PRES   REMARKS
DENVER INTL AP PTSUNNY   63  42  46 E23       29.80F
DMNS CITY PARK   N/A     53  43  67 NW18G41   29.85R
AURORA         PTSUNNY   65  34  31 SE3       29.80F
FRONT RANGE AP PTSUNNY   63  46  55 E17G23    29.81F
ERIE MUNI ARPT RAIN      56  44  63 W23G32    29.87R
BOULDER MUN AP RAIN      52  45  76 SW10      29.89R
CENTENNIAL     PTSUNNY   64  35  34 SW6G21    29.81F THUNDER
BROOMFIELD     LGT RAIN  50  43  76 W30G41    29.90R
FORT COLLINS   CLOUDY    46  39  76 N22G29    29.92R
LONGMONT       RAIN      57  43  59 SW17G24   29.89R
$$

COZ041-046-047-076>085-087-088-012200-
...PIKES PEAK/PALMER DIVIDE AND SOUTHERN FOOTHILLS...

CITY           SKY/WX    TMP DP  RH WIND       PRES   REMARKS
COLO. SPRINGS  PTSUNNY   68  30  24 S18G28    29.86F
A. F. ACADEMY  MOSUNNY   62  29  28 E9G17     29.87F
ELLICOTT       NOT AVBL
FALCON         CLOUDY    63  28  27 S12G22    29.90S
FORT CARSON    MOSUNNY   68  33  27 SE10G23   29.83F
LIMON          SUNNY     66  34  30 S13       29.83F
MONUMENT HILL  MOSUNNY   57  32  38 S18G29    29.87F
TRINIDAD       MOSUNNY   74  27  17 SE10      29.81F
$$

COZ042>045-048>051-090-091-012200-
...NORTHEAST COLORADO...

CITY           SKY/WX    TMP DP  RH WIND       PRES   REMARKS
GREELEY ARPT   PTSUNNY  N/A N/A N/A MISG        N/A
AKRON          SUNNY     66  40  38 MISG      29.83F
BURLINGTON     MOSUNNY   71  37  28 VRB3      29.82S
WRAY           MOSUNNY   75  39  27 E3        29.80F
STERLING       SUNNY     72  45  37 E7        29.81S
HOLYOKE        MOSUNNY   73  41  31 N5        29.81S
FORT MORGAN    MOSUNNY   67  38  34 E7        29.83F
$$

COZ086-089-092>099-012200-
...SOUTHEAST COLORADO...

CITY           SKY/WX    TMP DP  RH WIND       PRES   REMARKS
PUEBLO         MOSUNNY   75  33  21 SE14      29.78F
LA JUNTA       SUNNY     73  35  25 SE12      29.78F
LAMAR          SUNNY     76  40  27 CALM      29.76F
SPRINGFIELD      N/A     76  35  22 SE12      29.80F
$$



USA.gov is the U.S. government's official web portal to all federal, state and local government web resources and services.